Parrsboro, Nova Scotia

10:29 AM ADT on April 26, 2017 (GMT -0300)
Parrsboro

Weather History for CAPR - January, 2014

Change the Weather History Date:

Monday, January 6, 2014

  Actual Average Record
Temperature  
Mean Temperature 32 °F -  
Max Temperature 47 °F - - ()
Min Temperature 18 °F - - ()
Degree Days  
Heating Degree Days 32    
Moisture  
Dew Point 34 °F    
Average Humidity 96    
Maximum Humidity 98    
Minimum Humidity 92    
Precipitation  
Precipitation 0.08 in - - ()
Sea Level Pressure  
Sea Level Pressure 29.84 in    
Wind  
Wind Speed 8 mph ()    
Max Wind Speed 18 mph    
Max Gust Speed 26 mph    
T = Trace of Precipitation, MM = Missing Value Source: Averaged Metar Reports

Daily Weather History Graph

Daily Weather History Graph

Search for Another Location

Airport or City:

Trip Planner

Search our weather history database for the weather conditions in past years. The results will help you decide how hot, cold, wet, or windy it might be!

Date:

Astronomy

Jan. 06, 2014 Rise Set
Actual Time 7:56 AM AST 4:50 PM AST
Civil Twilight 7:23 AM AST 5:23 PM AST
Nautical Twilight 6:45 AM AST 6:00 PM AST
Astronomical Twilight 6:10 AM AST 6:36 PM AST
Moon 10:51 AM AST (1/6) 11:39 PM AST (1/6)
Length of Visible Light 10h 00m
Length of Day
8h 53m
Waxing Crescent, 34% of the Moon is Illuminated
Jan 6
Waxing Crescent
Jan 7
First Quarter
Jan 16
Full
Jan 24
Last Quarter
Jan 30
New

Hourly Weather History & Observations

Time (AST) Temp. Windchill Dew Point Humidity Pressure Visibility Wind Dir Wind Speed Gust Speed Precip Events Conditions
12:00 AM 21.7 °F - 20.8 °F 96% 30.30 in - SSE 1.2 mph - N/A   Unknown
1:00 AM 19.0 °F - 18.1 °F 96% 30.29 in - SE 1.2 mph - N/A   Unknown
2:00 AM 18 °F - 18 °F 98% 30.27 in - ESE 1.2 mph - -  
2:00 AM 18.5 °F - 17.6 °F 96% 30.27 in - Calm Calm - N/A   Unknown
3:00 AM 26.6 °F 20.0 °F 26.1 °F 98% 30.25 in - East 5.8 mph - N/A   Unknown
4:00 AM 28.4 °F 20.4 °F 26.2 °F 92% 30.22 in - ESE 8.1 mph - N/A   Unknown
5:00 AM 28.9 °F 22.8 °F 27.1 °F 93% 30.20 in - East 5.8 mph - N/A   Unknown
6:00 AM 30.4 °F 21.0 °F 28.8 °F 94% 30.16 in - East 11.5 mph 19.6 mph N/A   Unknown
7:00 AM 31.1 °F 21.4 °F 29.7 °F 94% 30.11 in - ESE 12.7 mph - N/A   Unknown
8:00 AM 32 °F - 31 °F 93% 30.10 in - ESE 17.3 mph - -  
8:00 AM 31.8 °F 20.2 °F 30.7 °F 96% 30.10 in - ESE 18.4 mph - N/A   Unknown
9:00 AM 33.8 °F 23.5 °F 32.7 °F 96% 30.06 in - ESE 16.1 mph 21.9 mph N/A   Unknown
10:00 AM 35.6 °F 26.2 °F 34.3 °F 95% 30.02 in - ESE 15.0 mph - 0.05 in   Unknown
11:00 AM 36.0 °F 26.0 °F 34.7 °F 95% 29.95 in - ESE 17.3 mph 26.5 mph 0.05 in   Unknown
12:00 PM 36.9 °F 26.8 °F 35.4 °F 95% 29.86 in - ESE 18.4 mph 25.3 mph N/A   Unknown
1:00 PM 37.2 °F 27.6 °F 36.1 °F 96% 29.77 in - East 17.3 mph 24.2 mph N/A   Unknown
2:00 PM 38 °F - 38 °F 98% 29.71 in - East 13.8 mph - -  
2:00 PM 38.5 °F 31.6 °F 37.6 °F 97% 29.71 in - ESE 10.4 mph 19.6 mph N/A   Unknown
3:00 PM 40.1 °F 32.4 °F 39.2 °F 97% 29.65 in - ENE 13.8 mph 20.7 mph 0.01 in   Unknown
4:00 PM 42.4 °F 34.7 °F 41.4 °F 96% 29.58 in - ESE 16.1 mph 24.2 mph 0.01 in   Unknown
5:00 PM 43.5 °F 36.1 °F 42.4 °F 96% 29.52 in - ESE 16.1 mph 24.2 mph 0.02 in   Unknown
6:00 PM 44.4 °F 37.5 °F 43.3 °F 96% 29.47 in - ESE 15.0 mph 23.0 mph N/A   Unknown
7:00 PM 45.1 °F 38.4 °F 44.2 °F 97% 29.42 in - ESE 15.0 mph - 0.01 in   Unknown
8:00 PM 47 °F - 46 °F 94% 29.37 in - SE 15.0 mph - -  
8:00 PM 46.8 °F - 45.9 °F 97% 29.37 in - SE 16.1 mph - N/A   Unknown
9:00 PM 46.0 °F 40.2 °F 45.1 °F 97% 29.32 in - SE 12.7 mph 21.9 mph N/A   Unknown
10:00 PM 46.0 °F 40.2 °F 45.3 °F 97% 29.25 in - SE 12.7 mph 19.6 mph N/A   Unknown
11:00 PM 44.4 °F 39.0 °F 43.7 °F 97% 29.21 in - SE 10.4 mph 17.3 mph 0.01 in   Unknown